{"data":{"norad_id":63774,"intl_designator":"2025-089Y","name":"STARLINK-33914","alt_names":[],"object_type":"PAYLOAD","status":"ACTIVE","operator":null,"country":"US","launch_date":"2025-04-29","launch_site_code":"AFETR","launch_vehicle":null,"mission":null,"orbit_class":"UNKNOWN","rcs_meters":null,"size_class":null,"mass_kg":null,"dimensions":null,"purposes":["comms"],"wikipedia_slug":null,"has_3d_model":false,"image_url":null,"decayed_at":null,"tle_current":{"epoch":"2026-05-25T04:46:14.242080Z","epoch_age_seconds":61181,"freshness":"FRESH","line1":"1 63774U 25089Y   26145.19877595  .00007399  00000+0  27792-3 0  9997","line2":"2 63774  43.0003 329.2189 0000991 280.9296  79.1444 15.27604385 60701","mean_motion":15.27604385,"eccentricity":9.91e-5,"inclination_deg":43.0003,"raan_deg":329.2189,"arg_perigee_deg":280.9296,"mean_anomaly_deg":79.1444,"bstar":0.00027792,"rev_number":6070,"period_min":94.265243942724,"perigee_km":482.29614324232,"apogee_km":483.65601585469,"semimajor_km":6861.1130795485,"source":"CELESTRAK","updated_at":"2026-05-25T13:38:20.130665Z"}}}